Location: LDNL
(36.4545°S, 141.6685°E)
Time: 04:03:32
(UTC+11:00)

A-11 Canister half - Pass Details

Date: 15 August 2022
Orbit: 1524 x 1684 km, 47.3° (Epoch: 05 October)

Event Time Altitude Azimuth Distance (km) Brightness Sun altitude
Rises 22:19:15 0° 239° (WSW) 4,695 12.2 -51.8°
Reaches altitude 10° 22:22:19 10° 236° (SW) 3,717 11.4 -52.3°
Enters shadow 22:26:01 28° 230° (SW) 2,605 10.4 -53.0°
Maximum altitude 22:31:43 71° 151° (SSE) 1,630 - -54.0°
Drops below altitude 10° 22:41:18 10° 67° (ENE) 3,793 - -55.6°
Sets 22:44:27 0° 65° (ENE) 4,795 - -56.1°
